JZA8775 CYYZ-KDTW

Flight info

Callsign JZA8775
Flight time 0h 48m
Altitude 28000
Route ANCOL5 GGUCE TPGUN2
Aircraft CRJ9/M-SDFGIRWY/S

Departure

Time 2026-05-06 14:26
Airport Toronto Pearson International Airport (CYYZ)

Arrival

Time 2026-05-06 15:15
Airport Detroit Metropolitan Wayne County Airport (KDTW)
Time Latitude Longitude Altitude Speed Heading
2026-05-06 13:59 43.67860 -79.60789 560 ft 0 kts 47°
2026-05-06 14:08 43.67858 -79.60791 560 ft 2 kts 47°
2026-05-06 14:08 43.67848 -79.60809 565 ft 2 kts 58°
2026-05-06 14:08 43.67843 -79.60831 560 ft 2 kts 88°
2026-05-06 14:08 43.67849 -79.60852 563 ft 2 kts 127°
2026-05-06 14:09 43.67855 -79.60861 561 ft 0 kts 134°
2026-05-06 14:16 43.67836 -79.60834 565 ft 8 kts 135°
2026-05-06 14:16 43.67784 -79.60769 560 ft 11 kts 137°
2026-05-06 14:16 43.67729 -79.60695 560 ft 7 kts 140°
2026-05-06 14:17 43.67677 -79.60652 563 ft 10 kts 149°
2026-05-06 14:17 43.67610 -79.60632 559 ft 11 kts 215°
2026-05-06 14:17 43.67548 -79.60717 561 ft 14 kts 227°
2026-05-06 14:17 43.67476 -79.60824 560 ft 17 kts 227°
2026-05-06 14:18 43.67395 -79.60953 566 ft 18 kts 234°
2026-05-06 14:18 43.67325 -79.61095 564 ft 19 kts 236°
2026-05-06 14:18 43.67251 -79.61237 562 ft 18 kts 233°
2026-05-06 14:18 43.67175 -79.61369 569 ft 17 kts 227°
2026-05-06 14:19 43.67086 -79.61487 568 ft 18 kts 221°
2026-05-06 14:19 43.66986 -79.61609 570 ft 21 kts 222°
2026-05-06 14:19 43.66877 -79.61748 568 ft 22 kts 223°
2026-05-06 14:19 43.66764 -79.61891 571 ft 20 kts 221°
2026-05-06 14:20 43.66659 -79.62022 567 ft 22 kts 223°
2026-05-06 14:20 43.66545 -79.62168 566 ft 23 kts 223°
2026-05-06 14:20 43.66421 -79.62325 561 ft 25 kts 221°
2026-05-06 14:20 43.66305 -79.62469 556 ft 18 kts 221°
2026-05-06 14:21 43.66219 -79.62491 561 ft 12 kts 148°
2026-05-06 14:21 43.66200 -79.62468 557 ft 0 kts 136°
2026-05-06 14:23 43.66198 -79.62465 556 ft 2 kts 134°
2026-05-06 14:24 43.66167 -79.62424 557 ft 9 kts 137°
2026-05-06 14:24 43.66126 -79.62371 559 ft 8 kts 136°
2026-05-06 14:24 43.66120 -79.62316 561 ft 6 kts 49°
2026-05-06 14:24 43.66131 -79.62299 566 ft 0 kts 43°
2026-05-06 14:25 43.66204 -79.62199 564 ft 42 kts 46°
2026-05-06 14:25 43.66571 -79.61651 560 ft 110 kts 47°
2026-05-06 14:25 43.67216 -79.60717 563 ft 161 kts 48°
2026-05-06 14:26 43.68034 -79.59512 1118 ft 171 kts 47°
2026-05-06 14:26 43.68860 -79.58323 2010 ft 178 kts 47°
2026-05-06 14:26 43.69714 -79.57036 2808 ft 180 kts 46°
2026-05-06 14:26 43.70583 -79.55764 3577 ft 192 kts 53°
2026-05-06 14:27 43.71055 -79.53921 4100 ft 209 kts 86°
2026-05-06 14:27 43.70972 -79.51946 4999 ft 218 kts 100°
2026-05-06 14:27 43.70654 -79.49775 5554 ft 240 kts 101°
2026-05-06 14:27 43.70346 -79.47440 6373 ft 254 kts 101°
2026-05-06 14:28 43.69987 -79.44965 6957 ft 272 kts 104°
2026-05-06 14:28 43.69462 -79.42408 7672 ft 277 kts 114°
2026-05-06 14:28 43.68484 -79.40161 8453 ft 277 kts 134°
2026-05-06 14:28 43.67124 -79.38254 9215 ft 281 kts 147°
2026-05-06 14:29 43.65373 -79.37182 9833 ft 277 kts 178°
2026-05-06 14:29 43.63465 -79.37483 10247 ft 279 kts 208°
2026-05-06 14:29 43.61957 -79.38841 11719 ft 240 kts 221°
2026-05-06 14:29 43.60641 -79.40262 12737 ft 240 kts 223°
2026-05-06 14:30 43.59334 -79.41678 13728 ft 231 kts 220°
2026-05-06 14:30 43.58034 -79.42866 14760 ft 222 kts 216°
2026-05-06 14:30 43.56620 -79.43959 14947 ft 249 kts 213°
2026-05-06 14:30 43.54993 -79.45142 14952 ft 278 kts 215°
2026-05-06 14:31 43.53322 -79.46672 15207 ft 296 kts 220°
2026-05-06 14:31 43.51655 -79.48451 15723 ft 309 kts 222°
2026-05-06 14:31 43.49951 -79.50342 16254 ft 322 kts 224°
2026-05-06 14:31 43.48319 -79.52556 16783 ft 335 kts 230°
2026-05-06 14:32 43.46802 -79.55029 17308 ft 348 kts 233°
2026-05-06 14:32 43.45269 -79.57690 17838 ft 362 kts 233°
2026-05-06 14:32 43.43665 -79.60454 18342 ft 376 kts 233°
2026-05-06 14:32 43.41965 -79.63256 18907 ft 385 kts 232°
2026-05-06 14:33 43.40211 -79.66090 19571 ft 392 kts 232°
2026-05-06 14:33 43.38468 -79.68917 20373 ft 393 kts 233°
2026-05-06 14:33 43.36712 -79.71762 21229 ft 394 kts 233°
2026-05-06 14:33 43.34894 -79.74705 22126 ft 393 kts 233°
2026-05-06 14:34 43.33123 -79.77577 22177 ft 395 kts 233°
2026-05-06 14:34 43.31397 -79.80363 22113 ft 373 kts 234°
2026-05-06 14:34 43.29751 -79.83023 22079 ft 357 kts 234°
2026-05-06 14:34 43.28173 -79.85572 22063 ft 347 kts 234°
2026-05-06 14:35 43.26563 -79.88174 22073 ft 368 kts 234°
2026-05-06 14:35 43.24860 -79.90937 22014 ft 386 kts 234°
2026-05-06 14:35 43.23163 -79.93802 21946 ft 386 kts 235°
2026-05-06 14:35 43.21545 -79.96712 21923 ft 384 kts 237°
2026-05-06 14:36 43.19956 -79.99668 21904 ft 385 kts 237°
2026-05-06 14:36 43.18360 -80.02620 21905 ft 385 kts 237°
2026-05-06 14:36 43.16757 -80.05564 21899 ft 386 kts 237°
2026-05-06 14:36 43.15168 -80.08473 21898 ft 386 kts 237°
2026-05-06 14:37 43.13551 -80.11431 21888 ft 387 kts 237°
2026-05-06 14:37 43.11941 -80.14376 21884 ft 387 kts 237°
2026-05-06 14:37 43.10328 -80.17331 21887 ft 388 kts 237°
2026-05-06 14:37 43.08706 -80.20298 21884 ft 389 kts 236°
2026-05-06 14:38 43.07077 -80.23273 21877 ft 390 kts 236°
2026-05-06 14:38 43.05449 -80.26242 21880 ft 390 kts 236°
2026-05-06 14:38 43.03837 -80.29180 21882 ft 391 kts 236°
2026-05-06 14:38 43.02201 -80.32158 21877 ft 391 kts 236°
2026-05-06 14:39 43.00568 -80.35127 21881 ft 392 kts 236°
2026-05-06 14:39 42.98923 -80.38114 21874 ft 392 kts 236°
2026-05-06 14:39 42.97277 -80.41101 21879 ft 393 kts 236°
2026-05-06 14:39 42.95629 -80.44090 21883 ft 393 kts 236°
2026-05-06 14:40 42.94002 -80.47036 21881 ft 393 kts 236°
2026-05-06 14:40 42.92357 -80.50013 21880 ft 392 kts 236°
2026-05-06 14:40 42.90712 -80.52987 21879 ft 391 kts 236°
2026-05-06 14:40 42.89076 -80.55940 21878 ft 390 kts 236°
2026-05-06 14:41 42.87443 -80.58886 21884 ft 389 kts 236°
2026-05-06 14:41 42.85815 -80.61819 21881 ft 388 kts 236°
2026-05-06 14:41 42.84187 -80.64751 21880 ft 388 kts 236°
2026-05-06 14:41 42.82559 -80.67681 21884 ft 388 kts 236°
2026-05-06 14:42 42.80950 -80.70574 21886 ft 388 kts 236°
2026-05-06 14:42 42.79301 -80.73534 21889 ft 388 kts 236°
2026-05-06 14:42 42.77691 -80.76422 21891 ft 388 kts 236°
2026-05-06 14:42 42.76037 -80.79384 21899 ft 388 kts 236°
2026-05-06 14:43 42.74427 -80.82263 21898 ft 388 kts 236°
2026-05-06 14:43 42.72790 -80.85188 21895 ft 388 kts 236°
2026-05-06 14:43 42.71160 -80.88107 21895 ft 387 kts 238°
2026-05-06 14:43 42.69828 -80.91253 21893 ft 383 kts 246°
2026-05-06 14:44 42.68773 -80.94578 21900 ft 382 kts 250°
2026-05-06 14:44 42.67799 -80.97954 21902 ft 382 kts 250°
2026-05-06 14:44 42.66826 -81.01314 21905 ft 382 kts 249°
2026-05-06 14:45 42.64748 -81.07937 21908 ft 383 kts 248°
2026-05-06 14:45 42.63691 -81.11256 21907 ft 383 kts 248°
2026-05-06 14:45 42.62632 -81.14573 21906 ft 383 kts 248°
2026-05-06 14:45 42.61573 -81.17895 21911 ft 383 kts 248°
2026-05-06 14:46 42.60513 -81.21218 21906 ft 383 kts 248°
2026-05-06 14:46 42.59450 -81.24542 21905 ft 383 kts 248°
2026-05-06 14:46 42.58389 -81.27859 21910 ft 382 kts 248°
2026-05-06 14:46 42.57342 -81.31126 21916 ft 382 kts 248°
2026-05-06 14:47 42.56279 -81.34437 21910 ft 382 kts 248°
2026-05-06 14:47 42.55218 -81.37743 21912 ft 382 kts 248°
2026-05-06 14:47 42.54155 -81.41048 21913 ft 382 kts 248°
2026-05-06 14:47 42.53088 -81.44358 21913 ft 382 kts 248°
2026-05-06 14:48 42.52025 -81.47656 21913 ft 382 kts 248°
2026-05-06 14:48 42.50958 -81.50959 21915 ft 382 kts 248°
2026-05-06 14:48 42.49892 -81.54255 21915 ft 382 kts 248°
2026-05-06 14:48 42.48823 -81.57559 21911 ft 382 kts 248°
2026-05-06 14:49 42.47755 -81.60854 21915 ft 382 kts 248°
2026-05-06 14:49 42.47050 -81.63031 21916 ft 382 kts 248°
2026-05-06 14:49 42.45980 -81.66329 21918 ft 382 kts 248°
2026-05-06 14:49 42.44562 -81.70688 21917 ft 382 kts 248°
2026-05-06 14:50 42.43489 -81.73983 21925 ft 382 kts 248°
2026-05-06 14:50 42.42417 -81.77274 21927 ft 382 kts 248°
2026-05-06 14:50 42.41706 -81.79450 21927 ft 382 kts 248°
2026-05-06 14:50 42.40631 -81.82743 21927 ft 382 kts 248°
2026-05-06 14:51 42.39552 -81.86041 21927 ft 382 kts 248°
2026-05-06 14:51 42.38478 -81.89323 21927 ft 382 kts 248°
2026-05-06 14:51 42.37398 -81.92607 21926 ft 382 kts 248°
2026-05-06 14:51 42.36321 -81.95891 21924 ft 382 kts 248°
2026-05-06 14:52 42.35240 -81.99186 21926 ft 382 kts 248°
2026-05-06 14:52 42.34159 -82.02467 21927 ft 382 kts 248°
2026-05-06 14:52 42.33077 -82.05750 21927 ft 383 kts 248°
2026-05-06 14:52 42.31992 -82.09044 21924 ft 383 kts 248°
2026-05-06 14:53 42.30905 -82.12329 21926 ft 383 kts 248°
2026-05-06 14:53 42.29834 -82.15573 21925 ft 383 kts 248°
2026-05-06 14:53 42.28745 -82.18860 21925 ft 383 kts 248°
2026-05-06 14:53 42.27658 -82.22143 21925 ft 383 kts 248°
2026-05-06 14:54 42.26570 -82.25423 21927 ft 383 kts 248°
2026-05-06 14:54 42.25478 -82.28705 21930 ft 383 kts 248°
2026-05-06 14:54 42.24387 -82.31986 21929 ft 383 kts 248°
2026-05-06 14:54 42.23294 -82.35265 21932 ft 383 kts 248°
2026-05-06 14:55 42.22202 -82.38540 21933 ft 383 kts 248°
2026-05-06 14:55 42.21109 -82.41817 21931 ft 383 kts 248°
2026-05-06 14:55 42.20015 -82.45095 21930 ft 383 kts 248°
2026-05-06 14:55 42.18933 -82.48336 21935 ft 383 kts 248°
2026-05-06 14:56 42.17836 -82.51621 21889 ft 384 kts 248°
2026-05-06 14:56 42.16736 -82.54916 21783 ft 387 kts 248°
2026-05-06 14:56 42.15629 -82.58231 21680 ft 389 kts 248°
2026-05-06 14:56 42.14541 -82.61484 21400 ft 369 kts 248°
2026-05-06 14:57 42.13510 -82.64547 20952 ft 349 kts 248°
2026-05-06 14:57 42.12527 -82.67454 20505 ft 333 kts 248°
2026-05-06 14:57 42.11580 -82.70238 20064 ft 320 kts 248°
2026-05-06 14:57 42.10663 -82.72924 19635 ft 310 kts 248°
2026-05-06 14:58 42.09786 -82.75481 19223 ft 300 kts 248°
2026-05-06 14:58 42.08919 -82.78005 18732 ft 294 kts 248°
2026-05-06 14:58 42.08073 -82.80457 18139 ft 281 kts 248°
2026-05-06 14:58 42.07268 -82.82776 17466 ft 267 kts 247°
2026-05-06 14:59 42.06497 -82.84981 16811 ft 255 kts 247°
2026-05-06 14:59 42.05754 -82.87103 16164 ft 245 kts 246°
2026-05-06 14:59 42.05035 -82.89147 15545 ft 237 kts 246°
2026-05-06 14:59 42.04671 -82.90183 15233 ft 238 kts 246°
2026-05-06 15:00 42.04038 -82.91990 14736 ft 256 kts 246°
2026-05-06 15:00 42.03351 -82.93958 14263 ft 268 kts 246°
2026-05-06 15:00 42.02548 -82.96260 13733 ft 280 kts 245°
2026-05-06 15:00 42.01707 -82.98677 13154 ft 289 kts 245°
2026-05-06 15:01 42.00864 -83.01096 12551 ft 272 kts 246°
2026-05-06 15:01 42.00090 -83.03310 11941 ft 259 kts 246°
2026-05-06 15:01 41.99331 -83.05475 11324 ft 252 kts 246°
2026-05-06 15:01 41.98599 -83.07560 10720 ft 241 kts 246°
2026-05-06 15:02 41.97879 -83.09603 10134 ft 240 kts 246°
2026-05-06 15:02 41.97176 -83.11597 9504 ft 232 kts 246°
2026-05-06 15:02 41.96493 -83.13525 8841 ft 225 kts 246°
2026-05-06 15:02 41.95833 -83.15379 8363 ft 214 kts 247°
2026-05-06 15:03 41.95194 -83.17170 7945 ft 212 kts 247°
2026-05-06 15:03 41.94558 -83.18946 7602 ft 207 kts 247°
2026-05-06 15:03 41.93928 -83.20707 7427 ft 212 kts 247°
2026-05-06 15:03 41.93285 -83.22506 7264 ft 212 kts 247°
2026-05-06 15:04 41.92656 -83.24261 7094 ft 211 kts 247°
2026-05-06 15:04 41.92019 -83.26040 6910 ft 215 kts 247°
2026-05-06 15:04 41.91359 -83.27892 6739 ft 220 kts 248°
2026-05-06 15:04 41.90712 -83.29700 6538 ft 210 kts 248°
2026-05-06 15:05 41.90084 -83.31443 6315 ft 207 kts 248°
2026-05-06 15:05 41.89439 -83.33244 6150 ft 220 kts 248°
2026-05-06 15:05 41.88859 -83.35154 6146 ft 217 kts 263°
2026-05-06 15:05 41.89023 -83.37045 6092 ft 196 kts 285°
2026-05-06 15:06 41.89334 -83.38857 5957 ft 206 kts 282°
2026-05-06 15:06 41.89532 -83.40728 5854 ft 202 kts 277°
2026-05-06 15:06 41.89594 -83.42575 5767 ft 197 kts 272°
2026-05-06 15:06 41.89579 -83.44402 5694 ft 195 kts 271°
2026-05-06 15:07 41.89549 -83.46247 5638 ft 199 kts 271°
2026-05-06 15:07 41.89528 -83.48116 5549 ft 201 kts 274°
2026-05-06 15:07 41.89906 -83.49888 5491 ft 198 kts 304°
2026-05-06 15:07 41.90903 -83.51089 5417 ft 197 kts 334°
2026-05-06 15:08 41.92227 -83.51591 5452 ft 199 kts 347°
2026-05-06 15:08 41.93610 -83.51831 5345 ft 201 kts 352°
2026-05-06 15:08 41.95015 -83.51922 5249 ft 203 kts 355°
2026-05-06 15:08 41.96408 -83.51708 5165 ft 198 kts 13°
2026-05-06 15:09 41.97661 -83.51113 5045 ft 184 kts 18°
2026-05-06 15:09 41.98799 -83.50448 5011 ft 177 kts 21°
2026-05-06 15:09 41.99948 -83.49670 5065 ft 190 kts 24°
2026-05-06 15:09 42.01101 -83.48815 5153 ft 186 kts 25°
2026-05-06 15:10 42.02248 -83.47944 4978 ft 193 kts 25°
2026-05-06 15:10 42.03435 -83.47030 4881 ft 197 kts 26°
2026-05-06 15:10 42.04599 -83.46154 4741 ft 188 kts 25°
2026-05-06 15:10 42.05717 -83.45305 4539 ft 184 kts 25°
2026-05-06 15:11 42.06847 -83.44488 4310 ft 182 kts 24°
2026-05-06 15:11 42.07958 -83.43691 4045 ft 178 kts 24°
2026-05-06 15:11 42.09071 -83.42910 3684 ft 184 kts 25°
2026-05-06 15:11 42.10190 -83.42106 3530 ft 174 kts 23°
2026-05-06 15:12 42.11223 -83.41377 3264 ft 163 kts 25°
2026-05-06 15:12 42.12224 -83.40627 2755 ft 163 kts 27°
2026-05-06 15:12 42.13216 -83.39882 2242 ft 165 kts 29°
2026-05-06 15:12 42.14192 -83.39080 1914 ft 154 kts 28°
2026-05-06 15:13 42.15088 -83.38428 1679 ft 142 kts 22°
2026-05-06 15:13 42.15990 -83.37845 1449 ft 142 kts 27°
2026-05-06 15:13 42.16841 -83.37172 1272 ft 143 kts 26°
2026-05-06 15:13 42.17723 -83.36531 1112 ft 148 kts 25°
2026-05-06 15:14 42.18640 -83.35860 889 ft 150 kts 26°
2026-05-06 15:14 42.19550 -83.35192 679 ft 144 kts 26°
2026-05-06 15:14 42.20316 -83.34637 645 ft 104 kts 27°
2026-05-06 15:14 42.20816 -83.34261 644 ft 57 kts 26°
2026-05-06 15:15 42.21026 -83.34200 644 ft 16 kts 358°
2026-05-06 15:15 42.21108 -83.34204 645 ft 12 kts 358°